• In Deutschland
  • Länderverzeichnis
  • Für 7 Tage
  • Wassertemperatur
  • Satellitenkarten
  • Wetterkarte
  • Widgets
  • user-avatar
    Anmelden

    Stündliche Wetter New Britain

    Heute, 24 November, Freitag

    Zeit Temperatur Niederschläge Wind Luftdruck Luftfeuchtigkeit
    00:00 +1°C° 0 mm 1 m/S 758 mmHg 61%
    01:00 +1°C° 0 mm 1 m/S 759 mmHg 62%
    02:00 +1°C° 0 mm 1 m/S 759 mmHg 62%
    03:00 +1°C° 0 mm 1 m/S 759 mmHg 62%
    04:00 +1°C° 0 mm 1 m/S 758 mmHg 62%
    05:00 +1°C° 0 mm 1 m/S 758 mmHg 62%
    06:00 +1°C° 0 mm 1 m/S 759 mmHg 63%
    07:00 +1°C° 0 mm 1 m/S 759 mmHg 63%
    08:00 +3°C° 0 mm 1 m/S 759 mmHg 57%
    09:00 +5°C° 0 mm 1 m/S 759 mmHg 51%
    10:00 +8°C° 0 mm 1 m/S 759 mmHg 45%
    11:00 +7°C° 0 mm 2 m/S 758 mmHg 45%
    12:00 +8°C° 0 mm 2 m/S 758 mmHg 45%
    13:00 +9°C° 0 mm 2 m/S 757 mmHg 44%
    14:00 +8°C° 0 mm 2 m/S 757 mmHg 49%
    15:00 +7°C° 0 mm 2 m/S 757 mmHg 54%
    16:00 +6°C° 0 mm 2 m/S 757 mmHg 59%
    17:00 +6°C° 0 mm 2 m/S 757 mmHg 61%
    18:00 +5°C° 0 mm 2 m/S 757 mmHg 63%
    19:00 +3°C° 0 mm 3 m/S 757 mmHg 66%
    20:00 +3°C° 0 mm 3 m/S 757 mmHg 67%
    21:00 +4°C° 0 mm 2 m/S 757 mmHg 67%
    22:00 +4°C° 0 mm 2 m/S 757 mmHg 68%
    23:00 +4°C° 0 mm 2 m/S 757 mmHg 69%

    Morgen, 25 November, Samstag

    Zeit Temperatur Niederschläge Wind Luftdruck Luftfeuchtigkeit
    00:00 +4°C° 0 mm 2 m/S 756 mmHg 70%
    01:00 +3°C° 0 mm 2 m/S 756 mmHg 71%
    02:00 +3°C° 0 mm 2 m/S 756 mmHg 72%
    03:00 +3°C° 0 mm 2 m/S 755 mmHg 73%
    04:00 +2°C° 0 mm 3 m/S 755 mmHg 74%
    05:00 +3°C° 0 mm 3 m/S 754 mmHg 75%
    06:00 +3°C° 0 mm 3 m/S 754 mmHg 76%
    07:00 +3°C° 0 mm 3 m/S 754 mmHg 77%
    08:00 +5°C° 0 mm 3 m/S 754 mmHg 70%
    09:00 +7°C° 0 mm 4 m/S 754 mmHg 63%
    10:00 +8°C° 0 mm 4 m/S 753 mmHg 57%
    11:00 +10°C° 0 mm 4 m/S 753 mmHg 55%
    12:00 +11°C° 0 mm 4 m/S 752 mmHg 53%
    13:00 +12°C° 0 mm 4 m/S 751 mmHg 52%
    14:00 +11°C° 0 mm 3 m/S 751 mmHg 57%
    15:00 +10°C° 0 mm 3 m/S 751 mmHg 62%
    16:00 +9°C° 0 mm 2 m/S 751 mmHg 67%
    17:00 +9°C° 0,1 mm 2 m/S 751 mmHg 71%
    18:00 +8°C° 0,1 mm 2 m/S 751 mmHg 75%
    19:00 +8°C° 0,1 mm 2 m/S 751 mmHg 79%
    20:00 +8°C° 0,1 mm 2 m/S 751 mmHg 81%
    21:00 +7°C° 0,1 mm 2 m/S 751 mmHg 84%
    22:00 +7°C° 0,1 mm 2 m/S 751 mmHg 87%
    23:00 +7°C° 0,1 mm 2 m/S 751 mmHg 88%

    übermorgen, 26 November, Sonntag

    Zeit Temperatur Niederschläge Wind Luftdruck Luftfeuchtigkeit
    00:00 +7°C° 0,1 mm 2 m/S 751 mmHg 88%
    01:00 +6°C° 0,1 mm 2 m/S 750 mmHg 89%
    02:00 +6°C° 0 mm 2 m/S 750 mmHg 88%
    03:00 +5°C° 0 mm 3 m/S 751 mmHg 86%
    04:00 +5°C° 0 mm 3 m/S 751 mmHg 85%
    05:00 +5°C° 0,2 mm 4 m/S 751 mmHg 82%
    06:00 +4°C° 0,2 mm 4 m/S 752 mmHg 79%
    07:00 +4°C° 0,2 mm 4 m/S 752 mmHg 75%
    08:00 +3°C° 0 mm 5 m/S 753 mmHg 71%
    09:00 +5°C° 0 mm 5 m/S 753 mmHg 66%
    10:00 +4°C° 0 mm 6 m/S 754 mmHg 62%
    11:00 +4°C° 0 mm 6 m/S 754 mmHg 57%
    12:00 +4°C° 0 mm 6 m/S 754 mmHg 53%
    13:00 +4°C° 0 mm 6 m/S 754 mmHg 49%
    14:00 +3°C° 0 mm 5 m/S 755 mmHg 51%
    15:00 +3°C° 0 mm 4 m/S 755 mmHg 54%
    16:00 +1°C° 0 mm 4 m/S 755 mmHg 56%
    17:00 +2°C° 0 mm 3 m/S 755 mmHg 60%
    18:00 +1°C° 0 mm 3 m/S 756 mmHg 64%
    19:00 0°C° 0 mm 3 m/S 756 mmHg 68%
    20:00 0°C° 0 mm 3 m/S 756 mmHg 69%
    21:00 0°C° 0 mm 3 m/S 756 mmHg 71%
    22:00 +1°C° 0 mm 2 m/S 756 mmHg 73%
    23:00 0°C° 0 mm 3 m/S 756 mmHg 73%

    27 November, Montag

    Zeit Temperatur Niederschläge Wind Luftdruck Luftfeuchtigkeit
    00:00 0°C° 0 mm 3 m/S 756 mmHg 74%
    01:00 0°C° 0 mm 3 m/S 756 mmHg 74%
    02:00 0°C° 0 mm 3 m/S 756 mmHg 75%
    03:00 0°C° 0 mm 3 m/S 756 mmHg 76%
    04:00 0°C° 0 mm 3 m/S 756 mmHg 78%
    05:00 +1°C° 0 mm 3 m/S 756 mmHg 78%
    06:00 +1°C° 0 mm 3 m/S 756 mmHg 79%
    07:00 +1°C° 0 mm 3 m/S 756 mmHg 79%
    08:00 +3°C° 0 mm 4 m/S 757 mmHg 72%
    09:00 +4°C° 0 mm 4 m/S 757 mmHg 66%
    10:00 +6°C° 0 mm 5 m/S 757 mmHg 59%
    11:00 +6°C° 0 mm 5 m/S 757 mmHg 55%
    12:00 +6°C° 0 mm 5 m/S 757 mmHg 51%
    13:00 +7°C° 0 mm 5 m/S 757 mmHg 47%
    14:00 +5°C° 0 mm 5 m/S 758 mmHg 48%
    15:00 +4°C° 0 mm 4 m/S 759 mmHg 49%
    16:00 +3°C° 0 mm 4 m/S 759 mmHg 50%
    17:00 +2°C° 0 mm 3 m/S 760 mmHg 55%
    18:00 +1°C° 0 mm 3 m/S 761 mmHg 59%
    19:00 +1°C° 0 mm 2 m/S 762 mmHg 64%
    20:00 -1°C° 0 mm 2 m/S 762 mmHg 66%
    21:00 -1°C° 0 mm 2 m/S 763 mmHg 68%
    22:00 0°C° 0 mm 1 m/S 763 mmHg 70%
    23:00 0°C° 0 mm 1 m/S 764 mmHg 70%

    28 November, Dienstag

    Zeit Temperatur Niederschläge Wind Luftdruck Luftfeuchtigkeit
    00:00 0°C° 0 mm 1 m/S 764 mmHg 71%
    01:00 0°C° 0 mm 1 m/S 764 mmHg 71%
    02:00 0°C° 0 mm 1 m/S 764 mmHg 72%
    03:00 0°C° 0 mm 1 m/S 764 mmHg 72%
    04:00 +1°C° 0 mm 1 m/S 764 mmHg 72%
    05:00 +1°C° 0 mm 1 m/S 764 mmHg 73%
    06:00 +1°C° 0 mm 1 m/S 764 mmHg 73%
    07:00 -1°C° 0 mm 2 m/S 765 mmHg 74%
    08:00 +3°C° 0 mm 2 m/S 764 mmHg 67%
    09:00 +4°C° 0 mm 3 m/S 764 mmHg 61%
    10:00 +6°C° 0 mm 4 m/S 764 mmHg 54%
    11:00 +8°C° 0 mm 4 m/S 763 mmHg 54%
    12:00 +9°C° 0 mm 5 m/S 763 mmHg 53%
    13:00 +10°C° 0 mm 5 m/S 762 mmHg 53%
    14:00 +9°C° 0 mm 5 m/S 761 mmHg 57%
    15:00 +9°C° 0 mm 5 m/S 761 mmHg 61%
    16:00 +8°C° 0 mm 4 m/S 761 mmHg 65%
    17:00 +8°C° 0 mm 4 m/S 761 mmHg 68%
    18:00 +8°C° 0 mm 4 m/S 761 mmHg 70%
    19:00 +7°C° 0 mm 4 m/S 761 mmHg 72%
    20:00 +7°C° 0 mm 4 m/S 760 mmHg 72%
    21:00 +7°C° 0 mm 4 m/S 760 mmHg 73%
    22:00 +7°C° 0 mm 4 m/S 760 mmHg 73%
    23:00 +7°C° 0 mm 4 m/S 759 mmHg 73%

    29 November, Mittwoch

    Zeit Temperatur Niederschläge Wind Luftdruck Luftfeuchtigkeit
    00:00 +7°C° 0 mm 4 m/S 759 mmHg 74%
    01:00 +7°C° 0 mm 4 m/S 759 mmHg 74%
    02:00 +6°C° 0 mm 4 m/S 759 mmHg 74%
    03:00 +6°C° 0 mm 4 m/S 759 mmHg 75%
    04:00 +7°C° 0 mm 3 m/S 759 mmHg 75%
    05:00 +7°C° 0 mm 3 m/S 759 mmHg 77%
    06:00 +5°C° 0 mm 3 m/S 759 mmHg 79%
    07:00 +5°C° 0 mm 3 m/S 759 mmHg 80%
    08:00 +8°C° 0 mm 3 m/S 760 mmHg 76%
    09:00 +9°C° 0 mm 3 m/S 760 mmHg 71%
    10:00 +11°C° 0 mm 3 m/S 760 mmHg 66%
    11:00 +12°C° 0 mm 3 m/S 760 mmHg 64%
    12:00 +13°C° 0 mm 3 m/S 760 mmHg 62%
    13:00 +14°C° 0 mm 3 m/S 760 mmHg 60%
    14:00 +14°C° 0 mm 2 m/S 760 mmHg 64%
    15:00 +12°C° 0 mm 2 m/S 760 mmHg 69%
    16:00 +11°C° 0 mm 1 m/S 761 mmHg 73%
    17:00 +10°C° 0 mm 1 m/S 761 mmHg 76%
    18:00 +9°C° 0 mm 1 m/S 762 mmHg 80%
    19:00 +8°C° 0 mm 1 m/S 762 mmHg 84%
    20:00 +7°C° 0 mm 1 m/S 763 mmHg 83%
    21:00 +7°C° 0 mm 1 m/S 763 mmHg 83%
    22:00 +7°C° 0 mm 1 m/S 763 mmHg 82%
    23:00 +6°C° 0 mm 1 m/S 763 mmHg 82%
    Mehr zeigen